Location: Baix
(44.7118°N, 4.7648°E)
Time: 14:33:30
(UTC+00:00)

Explorer 11/Cluster Stage 4 - Pass Details

Date: 28 November 2020
Orbit: 467 x 1258 km, 28.8° (Epoch: 14 January)

Event Time Altitude Azimuth Distance (km) Brightness Sun altitude
Rises 21:22:27 0° 222° (SW) 3,782 - -55.1°
Reaches altitude 10° 21:27:02 10° 197° (SSW) 2,633 - -55.8°
Maximum altitude 21:29:41 13° 172° (S) 2,308 - -56.2°
Drops below altitude 10° 21:32:09 10° 146° (SE) 2,388 - -56.6°
Sets 21:35:51 0° 118° (ESE) 3,124 - -57.1°
